#timestamp,LO_Frequency,Hit,StdDev 
1591012815.9,286046998.2,N
1591012835.7,286047000.8,N
1591012855.5,286047001.2,N
1591012875.4,286047000.7,N
1591012895.2,286046999.8,N
1591012915.0,286047000.9,N
1591012915.9,286047000.9,N
1591012935.8,286047000.1,N
1591012955.6,286046998.2,N
1591012975.5,286047000.8,N
1591012995.3,286047001.0,N
1591013015.1,286047000.5,N
1591013035.9,286047000.9,N
1591013055.7,286047000.5,N
1591013075.5,286047000.0,N
1591013095.4,286046998.2,N
1591013115.2,286047001.0,N
1591013135.1,286047000.7,N
1591013136.0,286047000.7,N
1591013155.8,286046998.4,N
1591013175.6,286047000.9,N
1591013195.5,286046998.1,N
1591013215.3,286047001.1,N
1591013235.1,286047001.2,N
1591013255.9,286046999.9,N
1591013275.7,286047000.7,N
1591013295.6,286047002.8,N
1591013315.4,286047003.3,N
1591013335.2,286047003.7,N
1591013355.1,286046999.7,N
1591013356.0,286046999.7,N
1591013375.8,286047002.6,N
1591013395.6,286047000.3,N
1591013415.5,286047000.5,N
1591013435.3,286047000.9,N
1591013455.2,286047000.3,N
1591013475.9,286047001.4,N
1591013495.7,286047002.5,N
1591013515.6,286046999.7,N
1591013535.4,286047001.2,N
1591013555.2,286047000.9,N
1591013575.1,286047000.7,N
1591013576.0,286047000.7,N
1591013595.8,286046998.5,N
1591013615.7,286046998.7,N
1591013635.5,286046998.6,N
1591013655.3,286046999.2,N
1591013675.2,286046998.4,N
1591013695.0,286046999.2,N
1591013695.9,286046999.2,N
1591013715.8,286046999.3,N
1591013735.6,286046999.4,N
1591013755.4,286046999.4,N
1591013775.3,286046997.1,N
1591013795.1,286046996.5,N
1591013815.8,286046996.9,N
1591013835.7,286046996.7,N
1591013855.5,286046996.8,N
1591013875.3,286046997.9,N
1591013895.2,286046996.2,N
1591013915.0,286046995.1,N
1591013915.9,286046995.1,N
1591013935.8,286046995.4,N
1591013955.6,286046995.1,N
1591013975.4,286046995.5,N
1591013995.3,286046997.6,N
1591014015.1,286046995.1,N
1591014035.8,286046995.5,N
1591014055.7,286046997.7,N
1591014075.5,286046998.0,N
1591014095.4,286046994.9,N
1591014115.2,286046997.5,N
1591014135.0,286046997.7,N
1591014135.9,286046997.7,N
1591014155.8,286046997.6,N
1591014175.6,286046996.0,N
1591014195.4,286046995.7,N
1591014215.3,286046995.3,Y
1591014235.1,286047000.7,P
1591014255.9,286046998.3,N
1591014275.7,286047001.0,N
1591014295.5,286046996.6,N
1591014315.4,286046999.3,N
1591014335.2,286046999.0,N
1591014355.0,286046998.6,N
1591014355.9,286046998.6,N
1591014375.8,286047000.3,N
1591014395.6,286046998.5,N
1591014415.5,286046997.0,N
1591014435.3,286046997.1,N
1591014455.1,286046997.6,N
1591014475.9,286046997.8,N
1591014495.7,286046997.7,N
1591014515.5,286046995.7,Y
1591014535.4,286046997.7,P
1591014555.2,286046996.7,P
1591014575.1,286046997.2,P
1591014576.0,286046997.2,Y
1591014595.8,286046998.5,P
1591014615.6,286046998.3,P
1591014635.5,286047000.6,N
1591014655.3,286047000.9,N
1591014675.1,286046999.9,N
1591014695.9,286047000.6,N
1591014715.7,286047001.0,N
1591014735.6,286047000.1,N
1591014755.4,286047001.1,N
1591014775.2,286047000.5,N
1591014795.1,286046998.3,N
1591014796.0,286046998.3,N
1591014815.8,286046999.2,N
1591014835.6,286046996.8,N
1591014855.5,286046997.3,N
1591014875.3,286046996.8,N
1591014895.2,286046999.6,N
1591014915.9,286046996.5,N
1591014935.7,286046996.9,N
1591014955.6,286047001.2,N
1591014975.4,286046998.3,N
1591014995.3,286046998.9,N
1591015015.1,286046998.3,N
1591015016.0,286046998.3,N
1591015035.8,286046998.8,N
1591015055.7,286046996.7,N
1591015075.5,286046998.3,N
1591015095.3,286046998.4,N
1591015115.2,286046997.0,N
1591015135.0,286046996.8,N
1591015135.9,286046996.8,N
1591015155.8,286046996.7,N
1591015175.6,286046999.5,N
1591015195.4,286046998.9,N
1591015215.3,286046996.5,N
1591015235.1,286046997.9,N
1591015255.9,286046993.7,Y
1591015275.7,286046994.9,P
1591015295.5,286046999.3,N
1591015315.4,286046996.9,N
1591015335.2,286046997.0,N
1591015355.1,286046999.3,N
1591015356.0,286046999.3,N
1591015375.8,286046997.1,N
1591015395.6,286046997.1,N
1591015415.5,286046998.9,N
1591015435.3,286046998.5,N
1591015455.1,286046998.2,N
1591015475.9,286046999.4,N
1591015495.7,286046997.0,N
1591015515.6,286046999.3,N
1591015535.4,286046999.3,N
1591015555.2,286046997.1,N
1591015575.1,286046996.6,N
1591015576.0,286046996.6,N
1591015595.8,286046997.7,N
1591015615.6,286046997.8,N
1591015635.5,286046997.3,N
1591015655.3,286046997.1,N
1591015675.2,286046997.7,N
1591015695.9,286046997.2,N
1591015715.7,286046997.7,N
1591015735.6,286046997.1,N
1591015755.4,286046997.5,N
1591015775.2,286046998.0,N
1591015795.1,286046996.8,Y
1591015796.0,286046996.8,P
1591015815.8,286046999.0,N
1591015835.7,286046998.7,N
1591015855.5,286046996.6,Y
1591015875.3,286047000.6,P
1591015895.2,286046998.1,N
1591015915.0,286047000.9,N
1591015915.9,286047000.9,N
1591015935.7,286047000.8,N
1591015955.6,286047001.2,N
1591015975.4,286046999.9,N
1591015995.3,286047000.3,N
1591016015.1,286047001.0,N
1591016016.0,286047001.0,N
1591016035.8,286047000.0,N
1591016055.7,286047000.4,N
1591016075.5,286047000.9,N
1591016095.3,286047001.2,N
1591016115.2,286046999.4,N
1591016135.0,286046999.4,N
1591016135.9,286046999.4,N
1591016155.8,286046999.3,N
1591016175.6,286046998.7,N
1591016195.4,286046999.4,N
1591016215.3,286046998.5,N
1591016235.1,286046998.5,N
1591016285.9,286046999.0,E
1591016295.8,286046999.5,N
1591016315.6,286046998.1,P
1591016335.5,286047001.1,N
1591016355.3,286047000.7,N
1591016375.1,286046998.2,N
1591016395.9,286046999.9,N
